This is the latest recevied weather packets stored in our database for station/object KI6AOK. If no packets are shown the sender has not sent any weather packets the latest 10 day(s).
| Time | Temp. | Humidity | Pressure | Rain* | Wind** | Luminosity | Snow |
|---|---|---|---|---|---|---|---|
| 1777777129 | 16.11° C | 82% | 1011.5 hPa | 0 mm | - | 0 W/m² | - |
| 1777776827 | 16.11° C | 82% | 1011.3 hPa | 0 mm | - | 0 W/m² | - |
| 1777776524 | 16.11° C | 82% | 1011.4 hPa | 0 mm | - | 0 W/m² | - |
| 1777776221 | 16.11° C | 82% | 1011.2 hPa | 0 mm | - | 0 W/m² | - |
| 1777775917 | 16.67° C | 81% | 1011.1 hPa | 0 mm | - | 1 W/m² | - |
| 1777775615 | 16.67° C | 81% | 1011.3 hPa | 0 mm | - | 3 W/m² | - |
| 1777775311 | 16.67° C | 81% | 1011.4 hPa | 0 mm | - | 4 W/m² | - |
| 1777775006 | 16.67° C | 80% | 1011.3 hPa | 0 mm | - | 6 W/m² | - |
| 1777774703 | 16.67° C | 79% | 1011 hPa | 0 mm | - | 10 W/m² | - |
| 1777774399 | 17.22° C | 79% | 1010.9 hPa | 0 mm | - | 17 W/m² | - |
| 1777774097 | 17.22° C | 79% | 1010.9 hPa | 0 mm | - | 19 W/m² | - |
| 1777773795 | 17.78° C | 78% | 1011.2 hPa | 0 mm | - | 28 W/m² | - |
| 1777773491 | 17.78° C | 77% | 1011.2 hPa | 0 mm | - | 40 W/m² | - |
| 1777773188 | 17.78° C | 77% | 1011 hPa | 0 mm | - | 44 W/m² | - |
| 1777772883 | 17.78° C | 77% | 1011.1 hPa | 0 mm | - | 50 W/m² | - |
| 1777772581 | 17.78° C | 76% | 1011 hPa | 0 mm | - | 53 W/m² | - |
| 1777772278 | 18.33° C | 76% | 1010.9 hPa | 0 mm | - | 53 W/m² | - |
| 1777771976 | 18.33° C | 75% | 1011 hPa | 0 mm | - | 57 W/m² | - |
| 1777771673 | 18.33° C | 74% | 1010.7 hPa | 0 mm | - | 71 W/m² | - |
| 1777771370 | 18.89° C | 74% | 1010.9 hPa | 0 mm | - | 89 W/m² | - |
| 1777771067 | 18.89° C | 73% | 1010.9 hPa | 0 mm | - | 107 W/m² | - |
| 1777770764 | 19.44° C | 72% | 1010.9 hPa | 0 mm | - | 110 W/m² | - |
| 1777770460 | 19.44° C | 72% | 1010.9 hPa | 0 mm | - | 109 W/m² | - |
| 1777770157 | 19.44° C | 71% | 1010.8 hPa | 0 mm | - | 106 W/m² | - |
| 1777769854 | 20° C | 69% | 1010.9 hPa | 0 mm | - | 102 W/m² | - |
* Rain latest hour (hover to see other rain measurements)
** Current wind speed in m/s (hover to see current wind gust speed)